"Pseudo-MPEC" for P117kzy

Created 2020 Oct 19 5:07:36 UT using Find_Orb

Click here for an explanation of pseudo-MPECs

 
 Astrometry: 
     P117kzy  C2020 08 13i,/:\3pO.:\tW7t[irtpD?X9hJVm3#MWc\KyIBNX\dRnVOExIoBhF52
     P117kzy  C2020 08 13M[1R7$?nQvWgHVAstrometry7D^I#UtY[#XYMMUoU6a'_vjW-X%IF52
     P117kzy  C2020 08 13IL)%'$8b[pu.xPXS@8:Gw@wBQ+VI#Y%Oc+VAwrnGelQwyq59rg3pF52
     P117kzy  C2020 08 23/eUcu$fU)orhKmfwI4xhZOeYUrrB_BQJw:F!ZU_O''TNGQQ[OtoXF52
     P117kzy  C2020 08 239NXnP6`MAdJ5dos?xFR(H]Z)f.SDG'\-,BZ(`^=KdgD)ey*r'RU;F52
     P117kzy  C2020 08 235BIh@qpwgR^MNrU4VM9A:^$Y].+`;ZP]]W.hTOt8#0X7A+Pyh@3KF52
     P117kzy  C2020 08 23ODiYX?p;8($\SUOVW9iH4redacted;NSP(Aq;G3kCGIc=UEB5\PjF52
     P117kzy  C2020 09 07e`X)JmXWC`y:UnhE85HU-f0,cEBmjaSl@7pgoN0/'%d[s,1vNf)nF51
     P117kzy  C2020 09 07Pi1Pf$@M2fmI\ZdE'EJkwQ`cM4)0]Zn0fsPm_;.ROqt-xRCv))91F51
     P117kzy  C2020 09 11rBAUuI2;v/[2JCeS#6N0RuVYo1Q8,`:(c'w:C,O00sOdvela=rWmF52
     P117kzy  C2020 09 11OWLDBW6O=Q1Z2.t/oJ?YCHCs3iZ+b8xkI$5l5Lu,W,fCnaRceLC.F52
     P117kzy  C2020 09 11t@[.dpmLbk=1I,W^2RjC8VfaqsJclick\EGDsB[,PN28s)#Bi[VgF52
     P117kzy  C2020 09 11JyZ'@ARmEi8G3eCmG)Cuo5Ix9kANLwovw)WqJ0dJyVK2AnZBQ#rFF52
     P117kzy  C2020 09 13mAx,2?4^=)[n38?7);!9fhZ4#hereeYu1Lp/2(OFAF*nqn3.q$LUF52
     P117kzy  C2020 09 13jni%pFjPuVke5tn5;n?qbj?uS6kW=FG1jL(6qX2M4#l#Q;9Fc2qLF52
     P117kzy  C2020 09 13#7!V'm3Dm40];8t2J`98=_ITUoAADDXET9lg8`Hw=:K)1vV)[LRjF52
     P117kzy  C2020 09 14[Gb#h`!_V:RCRlyTipn;yfuB/1oaU*c=-Q#/,enb,``P2.E2tKapF52
     P117kzy  C2020 09 145L?v'J_x1kU@Qr_Q@H]'C1P+0%5$OJ*oGf?`d*+tK\ld322Jm*mXF52
     P117kzy  C2020 09 14[xhwW$U-N`VOLOj6Yud*2VoyC[JjfqIGpkx'oThx:D'fsqVSGA]YF52
     P117kzy  C2020 09 14Q,XNB\sbTBcJ3a+];t[/bu84,k['(n2i;ec4M=06ACwLZmFo?2R1F52
     P117kzy  C2020 09 14F8[?^O+'UFlZ?[j/h-)TOrVH*bY*5e?N:%UIKh,A#PQr8/ul8maQF52
     P117kzy  C2020 10 06et[e0F_^:d9cio+u7/Bix4RMZDt\_K!Z`Aj`Z(Du3kIc\2C$Uul-F51
     P117kzy  C2020 10 06ILRwbkIKc_oJ?w$=sB*dFGFXj$4@puiv'f^siVDS;:WZk[Qd$\(JF51
     P117kzy  C2020 10 06)(\N,JnVF7,MWEF!!E.=_eQ*F)oJ?QNHZeP@5Dw55)=GN=HPbVG!F51
     P117kzy  C2020 10 07Ax,g[Ul,t#f_S-OR^Ag[hpy6;FGqgy#/52!5Ol+5lRP\MqrAK,AfF51
     P117kzy  C2020 10 07-B7tv:]1L8Ehm*WmvuyWLw)B?T):u672d3'Hx-`xRNk\+8XZ7^l6F51
     P117kzy  C2020 10 07u`/PiI%Y:7D'l%LRX$[#;@s!S2mKHB21rUZw5uiY-%\3W:8l=S3YF51
     P117kzy  C2020 10 084gl[8n#$%P4:'I5p\kXa'krA]e9jxLqf9=!,2Xdk.x+6Gt`]@DGdF51
     P117kzy  C2020 10 08=iG\\8Z.c!.lYL8BKC2Lr0^k.+U%NVa0nAsWuu8P)^dUv,Ztr-8DF51
     P117kzy  C2020 10 09qP5%5D+!l(Ih![cvsnY1XibI\60NZ'$J-9n8WI^:sL;Tj8'^ql`TF51
     P117kzy  C2020 10 094djJt^B.c6W!G_aSf#aVohn@[d[ixEZHsx,uuo^1L92,SN:?Q!OjF51
     P117kzy  C2020 10 09C@%-!n+F(-@'moVTABGforSO'Cs2D2hySm`TEUx,uYj5xV_0hTk1F51
     P117kzy  C2020 10 09($/*jx^CEDx;D-:P(MPLcG%?`%)(YO9aSFwT*A(soLc#b7-4T.9sF51
     P117kzy  C2020 10 14nrWvR,i99l9jC1L^JRgU$=;XK.,@'=p3#`Lp,f``cLai0eBORw/1F51
     P117kzy  C2020 10 14:$if3O`explanationnFV'Ip-?VMZ=k,XZpwyOT/`H3*h3NnZ_O)F51
     P117kzy  C2020 10 14/7#fd7]/w;jm8lmAV\Iif7jy@83%BqhYNTwek-b`wURCtxXVGv8lF51
     P117kzy  C2020 10 14OX^c74_b4]MD5fAD?!m3#=5SV[(h@EY``AtwHTA7u6:47a+JdH:qF51

Station data:
(F51) Pan-STARRS 1, Haleakala  (N20.707235 W156.255910)  US/Hawaii.
   Observers N. Primak, A. Schultz, S. Watters, J. Thiel, T. Goggia. Measurer
   PS1 Science Consortium. 1.8-m Ritchey-Chrétien + CCD.
(F52) Pan-STARRS 2, Haleakala  (N20.707384 W156.255910)  US/Hawaii. 1.8-m
   Ritchey-Chrétien + CCD.

Orbital elements:  P117kzy
   Perihelion 2021 Jan 11.243507 +/- 0.000979 TT =  5:50:39 (JD 2459225.743507)
Epoch 2020 Oct 14.0 TT = JDT 2459136.5   Earth MOID: 0.1993   AutoNEOCP
M 324.00397606 +/- 0.0012           (J2000 ecliptic)
n   0.40334613 +/- 1.54e-5          Peri.  172.52521 +/- 0.00052
a   1.81419562 +/- 4.61e-5          Node   306.57649 +/- 0.0025
e   0.7421389 +/- 2.58e-5           Incl.   12.34581 +/- 0.0012
P   2.44/892.52d           H 20.4   G  0.15   U  5.3  
q 0.46781042 +/- 3.67e-5    Q 3.16058082 +/- 0.000124
From 37 observations 2020 Aug. 13-Oct. 14; mean residual 0".19
Residuals in arcseconds: 
200813 F52  .02+  .07+    200913 F52  .06+  .10+    201007 F51  .29+  .15+    
200813 F52  .05-  .79-    200913 F52  .23+  .03-    201008 F51  .01+  .01-    
200813 F52  .48+  .09+    200913 F52  .17+  .08+    201008 F51  .09+  .02+    
200823 F52  .04+  .08+    200914 F52  .05-  .10-    201009 F51  .00   .10-    
200823 F52  .22+  .07-    200914 F52  .05+  .10-    201009 F51  .02+  .01-    
200823 F52  .09-  .13+    200914 F52  .15-  .04-    201009 F51  .06-  .05-    
200823 F52  .75-  .33+    200914 F52  .09+  .07-    201009 F51  .04-  .06-    
200907 F51  .07-  .00     200914 F52  .16+  .16+    201014 F51  .17-  .12-    
200907 F51  .13+  .18+    201006 F51  .26+  .16-    201014 F51  .12-  .05-    
200911 F52  .28-  .05+    201006 F51  .07+  .14+    201014 F51  .03-  .05+    
200911 F52  .60-  .19+    201006 F51  .01+  .04-    201014 F51  .08-  .07-    
200911 F52  .11+  .16-    201007 F51  .02-  .02+    
200911 F52  .17+  .04+    201007 F51  .04+  .13+    

Ephemerides (geocentric):
Date (UTC) HH   RA              Dec         delta   r     elong  mag " sig PA
---- -- -- --  -------------   -----------  ------ ------ -----  --- ---- ---
2020 10 19 05  20 33 03.361   -03 19 45.45  .86888 1.4649 103.3 22.6 .176 109
2020 10 19 06  20 33 01.085   -03 19 59.51  .86893 1.4644 103.3 22.6 .177 109
2020 10 19 07  20 32 58.815   -03 20 13.55  .86898 1.4639 103.2 22.6 .178 109
2020 10 19 08  20 32 56.551   -03 20 27.57  .86904 1.4635 103.2 22.6 .179 109
2020 10 19 09  20 32 54.293   -03 20 41.57  .86909 1.4630 103.1 22.6 .180 108
2020 10 19 10  20 32 52.040   -03 20 55.55  .86914 1.4625 103.1 22.6 .181 108
2020 10 19 11  20 32 49.793   -03 21 09.51  .86919 1.4620 103.0 22.6 .182 108
2020 10 19 12  20 32 47.551   -03 21 23.46  .86924 1.4616 103.0 22.6 .183 108
2020 10 19 13  20 32 45.316   -03 21 37.39  .86929 1.4611 102.9 22.6 .184 108
2020 10 19 14  20 32 43.085   -03 21 51.30  .86934 1.4606 102.9 22.6 .185 108
2020 10 19 15  20 32 40.861   -03 22 05.19  .86940 1.4601 102.8 22.6 .186 108
2020 10 19 16  20 32 38.642   -03 22 19.07  .86945 1.4597 102.8 22.6 .186 108
2020 10 19 17  20 32 36.429   -03 22 32.92  .86950 1.4592 102.7 22.6 .187 108
2020 10 19 18  20 32 34.221   -03 22 46.76  .86955 1.4587 102.7 22.6 .188 108
2020 10 19 19  20 32 32.019   -03 23 00.58  .86960 1.4582 102.6 22.6 .189 108
2020 10 19 20  20 32 29.823   -03 23 14.38  .86965 1.4578 102.6 22.6 .190 108
2020 10 19 21  20 32 27.632   -03 23 28.16  .86970 1.4573 102.5 22.6 .191 108
2020 10 19 22  20 32 25.447   -03 23 41.93  .86975 1.4568 102.5 22.6 .192 108
2020 10 19 23  20 32 23.268   -03 23 55.67  .86981 1.4563 102.4 22.6 .193 108
2020 10 20 00  20 32 21.094   -03 24 09.40  .86986 1.4559 102.4 22.6 .194 108
2020 10 20 01  20 32 18.926   -03 24 23.11  .86991 1.4554 102.3 22.6 .195 108
2020 10 20 02  20 32 16.763   -03 24 36.81  .86996 1.4549 102.3 22.6 .196 108
2020 10 20 03  20 32 14.606   -03 24 50.48  .87001 1.4545 102.2 22.6 .197 107
2020 10 20 04  20 32 12.455   -03 25 04.13  .87006 1.4540 102.2 22.6 .198 107
2020 10 20 05  20 32 10.309   -03 25 17.77  .87011 1.4535 102.1 22.6 .199 107
2020 10 20 06  20 32 08.169   -03 25 31.39  .87016 1.4530 102.1 22.6 .199 107
2020 10 20 07  20 32 06.035   -03 25 44.99  .87021 1.4526 102.0 22.6 .200 107
2020 10 20 08  20 32 03.906   -03 25 58.57  .87026 1.4521 102.0 22.6 .201 107
2020 10 20 09  20 32 01.783   -03 26 12.14  .87031 1.4516 101.9 22.6 .202 107
2020 10 20 10  20 31 59.665   -03 26 25.68  .87036 1.4511 101.9 22.6 .203 107
2020 10 20 11  20 31 57.553   -03 26 39.21  .87041 1.4507 101.8 22.6 .204 107
2020 10 20 12  20 31 55.446   -03 26 52.72  .87046 1.4502 101.8 22.6 .205 107
2020 10 20 13  20 31 53.345   -03 27 06.21  .87051 1.4497 101.7 22.6 .206 107
2020 10 20 14  20 31 51.250   -03 27 19.69  .87056 1.4492 101.7 22.6 .207 107
2020 10 20 15  20 31 49.160   -03 27 33.14  .87061 1.4487 101.6 22.6 .208 107
2020 10 20 16  20 31 47.076   -03 27 46.58  .87066 1.4483 101.6 22.6 .209 107
2020 10 20 17  20 31 44.997   -03 27 59.99  .87071 1.4478 101.5 22.6 .210 107
2020 10 20 18  20 31 42.924   -03 28 13.39  .87076 1.4473 101.5 22.6 .211 107
2020 10 20 19  20 31 40.856   -03 28 26.77  .87081 1.4468 101.4 22.6 .212 107
2020 10 20 20  20 31 38.794   -03 28 40.14  .87086 1.4464 101.4 22.6 .213 107
2020 10 20 21  20 31 36.738   -03 28 53.48  .87091 1.4459 101.3 22.6 .214 107
2020 10 20 22  20 31 34.687   -03 29 06.81  .87096 1.4454 101.3 22.6 .215 107
2020 10 20 23  20 31 32.642   -03 29 20.12  .87101 1.4449 101.2 22.6 .216 107
2020 10 21 00  20 31 30.602   -03 29 33.40  .87106 1.4445 101.2 22.6 .217 106
2020 10 21 01  20 31 28.568   -03 29 46.68  .87111 1.4440 101.1 22.6 .218 106
2020 10 21 02  20 31 26.539   -03 29 59.93  .87116 1.4435 101.1 22.6 .219 106
2020 10 21 03  20 31 24.516   -03 30 13.16  .87121 1.4430 101.0 22.6 .219 106
2020 10 21 04  20 31 22.498   -03 30 26.38  .87126 1.4426 101.0 22.6 .220 106